Regional Weather Roundup
Issued by NWS

Home | Current Version | Previous Version | Text Only | Print | Product List | Glossary On
Versions: 1 2 3 4 5 6 7 8 9 10 11 12 13 14 15 16 17 18 19 20 21 22 23 24 25 26 27
000
ASUS46 KPQR 310810
RWROR

OREGON REGIONAL WEATHER ROUNDUP
NATIONAL WEATHER SERVICE PORTLAND OR
100 AM PDT FRI OCT 31 2014

NOTE: "FAIR" INDICATES FEW OR NO CLOUDS BELOW 12,000 FEET WITH
NO SIGNIFICANT WEATHER AND/OR OBSTRUCTIONS TO VISIBILITY.

ORZ001>013-310900-
NORTHWEST OREGON


CITY           SKY/WX    TMP DP  RH WIND       PRES   REMARKS
ASTORIA        CLOUDY    53  51  93 E3        29.75F
NEWPORT        DRIZZLE   54  54 100 CALM      29.77F
PORTLAND       LGT RAIN  56  56 100 E7        29.75F
VANCOUVER WA   LGT RAIN  56  54  93 E5        29.75F
SCAPPOOSE      LGT RAIN  56  55  97 SE5       29.74F
HILLSBORO      LGT RAIN  57  56  96 E6        29.74F
AURORA         LGT RAIN  56  55  97 CALM      29.75F
MCMINNVILLE    LGT RAIN  56  55  97 CALM      29.75F
SALEM          LGT RAIN  57  56  96 S6        29.73F
CORVALLIS      CLOUDY    59  55  88 SE6       29.74F
EUGENE         LGT RAIN  57  55  93 SE10      29.74F
$$

ORZ021-028-310900-
SOUTHWEST OREGON


CITY           SKY/WX    TMP DP  RH WIND       PRES   REMARKS
NORTH BEND     CLOUDY    54  54 100 W10       29.77S
BROOKINGS      LGT RAIN  58  58 100 CALM      29.79S VSB 1/4
ROSEBURG       LGT RAIN  57  55  93 SW3       29.75F FOG
SEXTON SUMMIT  LGT RAIN  46  46 100 S12G21    29.79F VSB 1/4
MEDFORD        LGT RAIN  56  53  90 NE7       29.79S
$$

ORZ009-041-310900-
COLUMBIA GORGE


CITY           SKY/WX    TMP DP  RH WIND       PRES   REMARKS
TROUTDALE      LGT RAIN  56  53  90 E10       29.75F
THE DALLES     LGT RAIN  54  53  97 S3        29.79S FOG
$$

ORZ029>031-042>050-061>064-310900-
EASTERN OREGON


CITY           SKY/WX    TMP DP  RH WIND       PRES   REMARKS
REDMOND        CLOUDY    47  47 100 S3        29.80F FOG
BEND           CLOUDY    48  46  93 CALM      29.82F
KLAMATH FALLS  CLOUDY    52  42  69 S7        29.83F
LAKEVIEW       CLOUDY    52  30  43 S9        29.88S VSB 3/4
HERMISTON      CLOUDY    52  50  93 CALM      29.80S
PENDLETON      CLOUDY    50  48  93 SE10      29.79F FOG
JOHN DAY       CLOUDY    64  32  30 S13       29.80F
MEACHAM        CLOUDY    47  44  90 CALM      29.82R
LA GRANDE      CLOUDY    61  34  36 S16       29.77F
BAKER CITY     CLOUDY    42  36  79 E3        29.84F
BURNS          CLOUDY    44  38  79 CALM      29.86S
ROME             N/A     43  30  60 SE7       29.87F
ONTARIO        CLOUDY    45  40  82 W3        29.85F
$$



USA.gov is the U.S. government's official web portal to all federal, state and local government web resources and services.